START_TIME,STEP,MOV.,H8,t_acc.,H43,t_acc.,M25,t_acc.,H9,t_acc.
1979-03-01 09:00:18.950 ,6,0,0.,12.0,0.,12.0,0.,12.0,0.,12.0
1979-03-01 09:00:30.950 ,6,0,0.,12.0,0.,12.0,0.,12.0,0.,12.0
1979-03-01 09:00:42.950 ,5,0,0.,12.0,0.,12.0,0.,12.0,0.,12.0
1979-03-01 09:00:54.950 ,5,0,0.,12.0,0.,12.0,0.,12.0,0.,12.0
1979-03-01 09:01:06.950 ,4,0,0.,12.0,0.,12.0,0.,12.0,0.,12.0
1979-03-01 09:01:18.950 ,4,0,0.,12.0,0.,12.0,0.,12.0,0.,12.0
1979-03-01 09:01:30.950 ,3,0,0.,12.0,0.,12.0,0.,12.0,0.,12.0
1979-03-01 09:01:42.950 ,3,0,0.,12.0,0.,12.0,0.,12.0,0.,12.0
1979-03-01 09:01:54.950 ,2,0,0.,12.0,0.,12.0,0.,12.0,0.,12.0
1979-03-01 09:02:06.950 ,2,0,0.,12.0,0.,12.0,0.,12.0,0.,12.0
1979-03-01 09:02:18.950 ,1,0,0.,12.0,0.,12.0,0.,12.0,0.,12.0
1979-03-01 09:02:30.950 ,1,0,0.,12.0,0.,12.0,0.,12.0,0.,12.0
1979-03-01 09:02:42.950 ,0,0,0.,12.0,0.,12.0,0.,12.0,0.,12.0
1979-03-01 09:02:54.950 ,0,0,0.,12.0,0.,12.0,0.,12.0,0.,12.0
1979-03-01 09:03:06.950 ,0,0,0.,12.0,0.,12.0,0.,12.0,0.,12.0
1979-03-01 09:03:18.950 ,0,0,0.,12.0,0.,12.0,0.,12.0,0.,12.0
1979-03-01 09:03:30.950 ,1,0,0.,12.0,0.,12.0,0.,12.0,0.,12.0
1979-03-01 09:03:42.950 ,1,0,0.,12.0,0.,12.0,0.,12.0,0.,12.0
1979-03-01 09:03:54.950 ,2,0,0.,12.0,0.,12.0,0.,12.0,0.,12.0
1979-03-01 09:04:06.950 ,2,0,0.,12.0,0.,12.0,0.,12.0,0.,12.0
1979-03-01 09:04:18.950 ,3,0,0.,12.0,0.,12.0,0.,12.0,0.,12.0
1979-03-01 09:04:30.950 ,3,0,0.,12.0,0.,12.0,0.,12.0,0.,12.0
1979-03-01 09:04:42.950 ,4,0,0.,12.0,0.,12.0,0.,12.0,0.,12.0
1979-03-01 09:04:54.950 ,4,0,1.,12.0,0.,12.0,0.,12.0,0.,12.0
1979-03-01 09:05:06.950 ,5,0,0.,12.0,0.,12.0,0.,12.0,0.,12.0
1979-03-01 09:05:18.950 ,5,0,0.,12.0,0.,12.0,0.,12.0,0.,12.0
1979-03-01 09:05:30.950 ,6,0,0.,12.0,0.,12.0,0.,12.0,0.,12.0
1979-03-01 09:05:42.950 ,6,0,0.,12.0,0.,12.0,0.,12.0,0.,12.0
1979-03-01 09:05:54.950 ,7,0,0.,12.0,0.,12.0,0.,12.0,0.,12.0
1979-03-01 09:06:06.950 ,7,0,0.,12.0,0.,12.0,0.,12.0,0.,12.0
1979-03-01 09:06:18.950 ,7,0,0.,12.0,0.,12.0,0.,12.0,0.,12.0
1979-03-01 09:06:30.950 ,7,0,0.,12.0,0.,12.0,0.,12.0,0.,12.0
1979-03-01 09:06:42.950 ,6,0,0.,12.0,0.,12.0,0.,12.0,0.,12.0
1979-03-01 09:06:54.950 ,6,0,0.,12.0,0.,12.0,0.,12.0,0.,12.0
1979-03-01 09:07:06.950 ,5,0,0.,12.0,0.,12.0,0.,12.0,0.,12.0
1979-03-01 09:07:18.950 ,5,0,0.,12.0,0.,12.0,0.,12.0,0.,12.0
1979-03-01 09:07:30.950 ,4,0,0.,12.0,0.,12.0,0.,12.0,0.,12.0
1979-03-01 09:07:42.950 ,4,0,0.,12.0,0.,12.0,0.,12.0,0.,12.0
1979-03-01 09:07:54.950 ,3,0,0.,12.0,0.,12.0,0.,12.0,0.,12.0
1979-03-01 09:08:06.950 ,3,0,0.,12.0,0.,12.0,0.,12.0,0.,12.0
1979-03-01 09:08:18.950 ,2,0,0.,12.0,0.,12.0,0.,12.0,0.,12.0
1979-03-01 09:08:30.950 ,2,0,0.,12.0,0.,12.0,0.,12.0,0.,12.0
1979-03-01 09:08:42.950 ,1,0,0.,12.0,0.,12.0,0.,12.0,0.,12.0
1979-03-01 09:08:54.950 ,1,0,0.,12.0,0.,12.0,0.,12.0,0.,12.0
1979-03-01 09:09:06.950 ,0,0,0.,12.0,0.,12.0,0.,12.0,0.,12.0
1979-03-01 09:09:18.950 ,0,0,0.,12.0,0.,12.0,0.,12.0,0.,12.0
1979-03-01 09:09:30.950 ,0,0,0.,12.0,0.,12.0,0.,12.0,0.,12.0
1979-03-01 09:09:42.950 ,0,0,0.,12.0,0.,12.0,0.,12.0,0.,12.0
1979-03-01 09:09:54.950 ,1,0,0.,12.0,0.,12.0,0.,12.0,0.,12.0
1979-03-01 09:10:06.950 ,1,0,0.,12.0,0.,12.0,0.,12.0,0.,12.0
1979-03-01 09:10:18.950 ,2,0,1.,12.0,0.,12.0,0.,12.0,0.,12.0
1979-03-01 09:10:30.950 ,2,0,0.,12.0,0.,12.0,0.,12.0,0.,12.0
1979-03-01 09:10:42.950 ,3,0,0.,12.0,0.,12.0,0.,12.0,0.,12.0
1979-03-01 09:10:54.950 ,3,0,0.,12.0,0.,12.0,0.,12.0,0.,12.0
1979-03-01 09:11:06.950 ,4,0,0.,12.0,0.,12.0,0.,12.0,0.,12.0
1979-03-01 09:11:18.950 ,4,0,0.,12.0,0.,12.0,0.,12.0,0.,12.0
1979-03-01 09:11:30.950 ,5,0,0.,12.0,0.,12.0,0.,12.0,0.,12.0
1979-03-01 09:11:42.950 ,5,0,0.,12.0,0.,12.0,0.,12.0,0.,12.0
1979-03-01 09:11:54.950 ,6,0,0.,12.0,0.,12.0,0.,12.0,0.,12.0
1979-03-01 09:12:06.950 ,6,0,0.,12.0,0.,12.0,0.,12.0,0.,12.0
1979-03-01 09:12:18.950 ,7,0,0.,12.0,0.,12.0,0.,12.0,0.,12.0
1979-03-01 09:12:30.950 ,7,0,0.,12.0,0.,12.0,0.,12.0,0.,12.0
1979-03-01 09:12:42.950 ,7,0,0.,12.0,0.,12.0,0.,12.0,0.,12.0
1979-03-01 09:12:54.950 ,7,0,0.,12.0,0.,12.0,0.,12.0,0.,12.0
1979-03-01 09:13:06.950 ,6,0,0.,12.0,0.,12.0,0.,12.0,0.,12.0
1979-03-01 09:13:18.950 ,6,0,0.,12.0,0.,12.0,0.,12.0,0.,12.0
1979-03-01 09:13:30.950 ,5,0,0.,12.0,0.,12.0,0.,12.0,0.,12.0
1979-03-01 09:13:42.950 ,5,0,0.,12.0,0.,12.0,0.,12.0,0.,12.0
1979-03-01 09:13:54.950 ,4,0,0.,12.0,0.,12.0,0.,12.0,0.,12.0
1979-03-01 09:14:06.950 ,4,0,0.,12.0,0.,12.0,0.,12.0,0.,12.0
1979-03-01 09:14:18.950 ,3,0,1.,12.0,0.,12.0,0.,12.0,0.,12.0
1979-03-01 09:14:30.950 ,3,0,0.,12.0,0.,12.0,0.,12.0,0.,12.0
1979-03-01 09:14:42.950 ,2,0,0.,12.0,0.,12.0,0.,12.0,0.,12.0
1979-03-01 09:14:54.950 ,2,0,0.,12.0,0.,12.0,0.,12.0,0.,12.0
1979-03-01 09:15:06.950 ,1,0,0.,12.0,0.,12.0,0.,12.0,0.,12.0
1979-03-01 09:15:18.950 ,1,0,0.,12.0,0.,12.0,0.,12.0,0.,12.0
1979-03-01 09:15:30.950 ,0,0,0.,12.0,0.,12.0,0.,12.0,0.,12.0
1979-03-01 09:15:42.950 ,0,0,0.,12.0,0.,12.0,0.,12.0,0.,12.0
1979-03-01 09:15:54.950 ,0,0,0.,12.0,0.,12.0,0.,12.0,0.,12.0
1979-03-01 09:16:06.950 ,0,0,0.,12.0,0.,12.0,0.,12.0,0.,12.0
1979-03-01 09:16:18.950 ,1,0,0.,12.0,0.,12.0,0.,12.0,0.,12.0
1979-03-01 09:16:30.950 ,1,0,0.,12.0,0.,12.0,0.,12.0,0.,12.0
1979-03-01 09:16:42.950 ,2,0,0.,12.0,0.,12.0,0.,12.0,0.,12.0
1979-03-01 09:16:54.950 ,2,0,0.,12.0,0.,12.0,0.,12.0,0.,12.0
1979-03-01 09:17:06.950 ,3,0,0.,12.0,0.,12.0,0.,12.0,0.,12.0
1979-03-01 09:17:18.950 ,3,0,0.,12.0,0.,12.0,0.,12.0,0.,12.0
1979-03-01 09:17:30.950 ,4,0,0.,12.0,0.,12.0,0.,12.0,0.,12.0
1979-03-01 09:17:42.950 ,4,0,0.,12.0,0.,12.0,0.,12.0,0.,12.0
1979-03-01 09:17:54.950 ,5,0,0.,12.0,0.,12.0,0.,12.0,0.,12.0
1979-03-01 09:18:06.950 ,5,0,0.,12.0,0.,12.0,0.,12.0,0.,12.0
1979-03-01 09:18:18.950 ,6,0,0.,12.0,0.,12.0,0.,12.0,0.,12.0
1979-03-01 09:18:30.950 ,6,0,0.,12.0,0.,12.0,0.,12.0,0.,12.0
1979-03-01 09:18:42.950 ,7,0,0.,12.0,0.,12.0,0.,12.0,0.,12.0
1979-03-01 09:18:54.950 ,7,0,0.,12.0,0.,12.0,0.,12.0,0.,12.0
1979-03-01 09:19:06.950 ,7,0,0.,12.0,0.,12.0,0.,12.0,0.,12.0
1979-03-01 09:19:18.950 ,7,0,0.,12.0,0.,12.0,0.,12.0,0.,12.0
1979-03-01 09:19:30.950 ,6,0,0.,12.0,0.,12.0,0.,12.0,0.,12.0
1979-03-01 09:19:42.950 ,6,0,0.,12.0,0.,12.0,0.,12.0,0.,12.0
1979-03-01 09:19:54.950 ,5,0,0.,12.0,0.,12.0,0.,12.0,0.,12.0
1979-03-01 09:20:06.950 ,5,0,0.,12.0,0.,12.0,0.,12.0,0.,12.0
1979-03-01 09:20:18.950 ,4,0,0.,12.0,0.,12.0,0.,12.0,0.,12.0
1979-03-01 09:20:30.950 ,4,0,0.,12.0,0.,12.0,0.,12.0,0.,12.0
1979-03-01 09:20:42.950 ,3,0,0.,12.0,0.,12.0,0.,12.0,0.,12.0
1979-03-01 09:20:54.950 ,3,0,0.,12.0,0.,12.0,0.,12.0,0.,12.0
1979-03-01 09:21:06.950 ,2,0,0.,12.0,0.,12.0,0.,12.0,0.,12.0
1979-03-01 09:21:18.950 ,2,0,0.,12.0,0.,12.0,0.,12.0,0.,12.0
1979-03-01 09:21:30.950 ,1,0,0.,12.0,0.,12.0,0.,12.0,0.,12.0
1979-03-01 09:21:42.950 ,1,0,0.,12.0,0.,12.0,0.,12.0,0.,12.0
1979-03-01 09:21:54.950 ,0,0,0.,12.0,0.,12.0,0.,12.0,0.,12.0
1979-03-01 09:22:06.950 ,0,0,0.,12.0,0.,12.0,0.,12.0,0.,12.0
1979-03-01 09:22:18.950 ,0,0,0.,12.0,0.,12.0,0.,12.0,0.,12.0
1979-03-01 09:22:30.950 ,0,0,0.,12.0,0.,12.0,0.,12.0,0.,12.0
1979-03-01 09:22:42.950 ,1,0,0.,12.0,0.,12.0,0.,12.0,0.,12.0
1979-03-01 09:22:54.950 ,1,0,0.,12.0,0.,12.0,0.,12.0,0.,12.0
1979-03-01 09:23:06.950 ,2,0,0.,12.0,0.,12.0,0.,12.0,0.,12.0
1979-03-01 09:23:18.950 ,2,0,0.,12.0,0.,12.0,0.,12.0,0.,12.0
1979-03-01 09:23:30.950 ,3,0,0.,12.0,0.,12.0,0.,12.0,0.,12.0
1979-03-01 09:23:42.950 ,3,0,0.,12.0,0.,12.0,0.,12.0,0.,12.0
1979-03-01 09:23:54.950 ,4,0,0.,12.0,0.,12.0,0.,12.0,0.,12.0
1979-03-01 09:24:06.950 ,4,0,0.,12.0,0.,12.0,0.,12.0,0.,12.0
1979-03-01 09:24:18.950 ,5,0,0.,12.0,0.,12.0,0.,12.0,0.,12.0
1979-03-01 09:24:30.950 ,5,0,0.,12.0,0.,12.0,0.,12.0,0.,12.0
1979-03-01 09:24:42.950 ,6,0,0.,12.0,0.,12.0,0.,12.0,0.,12.0
1979-03-01 09:24:54.950 ,6,0,0.,12.0,0.,12.0,0.,12.0,0.,12.0
1979-03-01 09:25:06.950 ,7,0,0.,12.0,0.,12.0,0.,12.0,0.,12.0
1979-03-01 09:25:18.950 ,7,0,0.,12.0,0.,12.0,0.,12.0,0.,12.0
1979-03-01 09:25:30.950 ,7,0,0.,12.0,0.,12.0,0.,12.0,0.,12.0
1979-03-01 09:25:42.950 ,7,0,0.,12.0,0.,12.0,0.,12.0,0.,12.0
1979-03-01 09:25:54.950 ,6,0,0.,12.0,0.,12.0,0.,12.0,0.,12.0
1979-03-01 09:26:06.950 ,6,0,0.,12.0,0.,12.0,0.,12.0,0.,12.0
1979-03-01 09:26:18.950 ,5,0,0.,12.0,0.,12.0,0.,12.0,0.,12.0
1979-03-01 09:26:30.950 ,5,0,0.,12.0,0.,12.0,0.,12.0,0.,12.0
1979-03-01 09:26:42.950 ,4,0,0.,12.0,0.,12.0,0.,12.0,0.,12.0
1979-03-01 09:26:54.950 ,4,0,0.,12.0,0.,12.0,0.,12.0,0.,12.0
1979-03-01 09:27:06.950 ,3,0,0.,12.0,0.,12.0,0.,12.0,0.,12.0
1979-03-01 09:27:18.950 ,3,0,0.,12.0,0.,12.0,0.,12.0,0.,12.0
1979-03-01 09:27:30.950 ,2,0,0.,12.0,0.,12.0,0.,12.0,0.,12.0
1979-03-01 09:27:42.950 ,2,0,0.,12.0,0.,12.0,0.,12.0,0.,12.0
1979-03-01 09:27:54.950 ,1,0,0.,12.0,0.,12.0,0.,12.0,0.,12.0
1979-03-01 09:28:06.950 ,1,0,0.,12.0,0.,12.0,0.,12.0,0.,12.0
1979-03-01 09:28:18.950 ,0,0,0.,12.0,0.,12.0,0.,12.0,0.,12.0
1979-03-01 09:28:30.950 ,0,0,0.,12.0,0.,12.0,0.,12.0,0.,12.0
1979-03-01 09:28:42.950 ,0,0,0.,12.0,0.,12.0,0.,12.0,0.,12.0
1979-03-01 09:28:54.950 ,0,0,0.,12.0,0.,12.0,0.,12.0,0.,12.0
1979-03-01 09:29:06.950 ,1,0,0.,12.0,0.,12.0,0.,12.0,0.,12.0
1979-03-01 09:29:18.950 ,1,0,0.,12.0,0.,12.0,0.,12.0,0.,12.0
1979-03-01 09:29:30.950 ,2,0,1.,12.0,0.,12.0,0.,12.0,0.,12.0
1979-03-01 09:29:42.950 ,2,0,0.,12.0,0.,12.0,0.,12.0,0.,12.0
1979-03-01 09:29:54.950 ,3,0,0.,12.0,0.,12.0,0.,12.0,0.,12.0
1979-03-01 09:30:06.950 ,3,0,0.,12.0,0.,12.0,0.,12.0,0.,12.0
1979-03-01 09:30:18.950 ,4,0,0.,12.0,0.,12.0,0.,12.0,0.,12.0
1979-03-01 09:30:30.950 ,4,0,0.,12.0,0.,12.0,0.,12.0,0.,12.0
1979-03-01 09:30:42.950 ,5,0,0.,12.0,0.,12.0,0.,12.0,0.,12.0
1979-03-01 09:30:54.950 ,5,0,0.,12.0,0.,12.0,0.,12.0,0.,12.0
1979-03-01 09:31:06.950 ,6,0,0.,12.0,0.,12.0,0.,12.0,0.,12.0
1979-03-01 09:31:18.950 ,6,0,0.,12.0,0.,12.0,0.,12.0,0.,12.0
1979-03-01 09:31:30.950 ,7,0,0.,12.0,0.,12.0,0.,12.0,0.,12.0
1979-03-01 09:31:42.950 ,7,0,0.,12.0,0.,12.0,0.,12.0,0.,12.0
1979-03-01 09:31:54.950 ,7,0,0.,12.0,0.,12.0,0.,12.0,0.,12.0
1979-03-01 09:32:06.950 ,7,0,0.,12.0,0.,12.0,0.,12.0,0.,12.0
1979-03-01 09:32:18.950 ,6,0,0.,12.0,0.,12.0,0.,12.0,0.,12.0
1979-03-01 09:32:30.950 ,6,0,0.,12.0,0.,12.0,0.,12.0,0.,12.0
1979-03-01 09:32:42.950 ,5,0,0.,12.0,0.,12.0,0.,12.0,0.,12.0
1979-03-01 09:32:54.950 ,5,0,0.,12.0,0.,12.0,0.,12.0,0.,12.0
1979-03-01 09:33:06.950 ,4,0,0.,12.0,0.,12.0,0.,12.0,0.,12.0
1979-03-01 09:33:18.950 ,4,0,0.,12.0,0.,12.0,0.,12.0,0.,12.0
1979-03-01 09:33:30.950 ,3,0,0.,12.0,0.,12.0,0.,12.0,0.,12.0
1979-03-01 09:33:42.950 ,3,0,0.,12.0,0.,12.0,0.,12.0,0.,12.0
1979-03-01 09:33:54.950 ,2,0,0.,12.0,0.,12.0,0.,12.0,0.,12.0
1979-03-01 09:34:06.950 ,2,0,0.,12.0,0.,12.0,0.,12.0,0.,12.0
1979-03-01 09:34:18.950 ,1,0,0.,12.0,0.,12.0,0.,12.0,0.,12.0
1979-03-01 09:34:30.950 ,1,0,0.,12.0,0.,12.0,0.,12.0,0.,12.0
1979-03-01 09:34:42.950 ,0,0,0.,12.0,0.,12.0,0.,12.0,0.,12.0
1979-03-01 09:34:54.950 ,0,0,0.,12.0,0.,12.0,0.,12.0,0.,12.0
1979-03-01 09:35:06.950 ,0,0,0.,12.0,0.,12.0,0.,12.0,0.,12.0
1979-03-01 09:35:18.950 ,0,0,0.,12.0,0.,12.0,0.,12.0,0.,12.0
1979-03-01 09:35:30.950 ,1,0,0.,12.0,0.,12.0,0.,12.0,0.,12.0
1979-03-01 09:35:42.950 ,1,0,0.,12.0,0.,12.0,0.,12.0,0.,12.0
1979-03-01 09:35:54.950 ,2,0,0.,12.0,0.,12.0,0.,12.0,0.,12.0
1979-03-01 09:36:06.950 ,2,0,0.,12.0,0.,12.0,0.,12.0,0.,12.0
1979-03-01 09:36:18.950 ,3,0,0.,12.0,0.,12.0,0.,12.0,0.,12.0
1979-03-01 09:36:30.950 ,3,0,0.,12.0,0.,12.0,0.,12.0,0.,12.0
1979-03-01 09:36:42.950 ,4,0,0.,12.0,0.,12.0,0.,12.0,0.,12.0
1979-03-01 09:36:54.950 ,4,0,0.,12.0,0.,12.0,0.,12.0,0.,12.0
1979-03-01 09:37:06.950 ,5,0,0.,12.0,0.,12.0,0.,12.0,0.,12.0
1979-03-01 09:37:18.950 ,5,0,0.,12.0,0.,12.0,0.,12.0,0.,12.0
1979-03-01 09:37:30.950 ,6,0,0.,12.0,0.,12.0,0.,12.0,0.,12.0
1979-03-01 09:37:42.950 ,6,0,0.,12.0,0.,12.0,0.,12.0,0.,12.0
1979-03-01 09:37:54.950 ,7,0,0.,12.0,0.,12.0,0.,12.0,0.,12.0
1979-03-01 09:38:06.950 ,7,0,0.,12.0,0.,12.0,0.,12.0,0.,12.0
1979-03-01 09:38:18.950 ,7,0,0.,12.0,0.,12.0,0.,12.0,0.,12.0
1979-03-01 09:38:30.950 ,7,0,0.,12.0,0.,12.0,0.,12.0,0.,12.0
1979-03-01 09:38:42.950 ,6,0,0.,12.0,0.,12.0,0.,12.0,0.,12.0
1979-03-01 09:38:54.950 ,6,0,0.,12.0,0.,12.0,0.,12.0,0.,12.0
1979-03-01 09:39:06.950 ,5,0,0.,12.0,0.,12.0,0.,12.0,0.,12.0
1979-03-01 09:39:18.950 ,5,0,0.,12.0,0.,12.0,0.,12.0,0.,12.0
1979-03-01 09:39:30.950 ,4,0,0.,12.0,0.,12.0,0.,12.0,0.,12.0
1979-03-01 09:39:42.950 ,4,0,0.,12.0,0.,12.0,0.,12.0,0.,12.0
1979-03-01 09:39:54.950 ,3,0,0.,12.0,0.,12.0,0.,12.0,0.,12.0
1979-03-01 09:40:06.950 ,3,0,0.,12.0,0.,12.0,0.,12.0,0.,12.0
1979-03-01 09:40:18.950 ,2,0,0.,12.0,0.,12.0,0.,12.0,0.,12.0
1979-03-01 09:40:30.950 ,2,0,0.,12.0,0.,12.0,0.,12.0,0.,12.0
1979-03-01 09:40:42.950 ,1,0,0.,12.0,0.,12.0,0.,12.0,0.,12.0
1979-03-01 09:40:54.950 ,1,0,0.,12.0,0.,12.0,0.,12.0,0.,12.0
1979-03-01 09:41:06.950 ,0,0,0.,12.0,0.,12.0,0.,12.0,0.,12.0
1979-03-01 09:41:18.950 ,0,0,0.,12.0,0.,12.0,0.,12.0,0.,12.0
1979-03-01 09:41:30.950 ,0,0,0.,12.0,0.,12.0,0.,12.0,0.,12.0
1979-03-01 09:41:42.950 ,0,0,0.,12.0,0.,12.0,0.,12.0,0.,12.0
1979-03-01 09:41:54.950 ,1,0,0.,12.0,0.,12.0,0.,12.0,0.,12.0
1979-03-01 09:42:06.950 ,1,0,0.,12.0,0.,12.0,0.,12.0,0.,12.0
1979-03-01 09:42:18.950 ,2,0,0.,12.0,0.,12.0,0.,12.0,0.,12.0
1979-03-01 09:42:30.950 ,2,0,0.,12.0,0.,12.0,0.,12.0,0.,12.0
1979-03-01 09:42:42.950 ,3,0,0.,12.0,0.,12.0,0.,12.0,0.,12.0
1979-03-01 09:42:54.950 ,3,0,0.,12.0,0.,12.0,0.,12.0,0.,12.0
1979-03-01 09:43:06.950 ,4,0,0.,12.0,0.,12.0,0.,12.0,0.,12.0
1979-03-01 09:43:18.950 ,4,0,0.,12.0,0.,12.0,0.,12.0,0.,12.0
1979-03-01 09:43:30.950 ,5,0,0.,12.0,0.,12.0,0.,12.0,0.,12.0
1979-03-01 09:43:42.950 ,5,0,0.,12.0,0.,12.0,0.,12.0,0.,12.0
1979-03-01 09:43:54.950 ,6,0,0.,12.0,0.,12.0,0.,12.0,0.,12.0
1979-03-01 09:44:06.950 ,6,0,0.,12.0,0.,12.0,0.,12.0,0.,12.0
1979-03-01 09:44:18.950 ,7,0,0.,12.0,0.,12.0,0.,12.0,0.,12.0
1979-03-01 09:44:30.950 ,7,0,0.,12.0,0.,12.0,0.,12.0,0.,12.0
1979-03-01 09:44:42.950 ,7,0,0.,12.0,0.,12.0,0.,12.0,0.,12.0
1979-03-01 09:44:54.950 ,7,0,0.,12.0,0.,12.0,0.,12.0,0.,12.0
1979-03-01 09:45:06.950 ,6,0,0.,12.0,0.,12.0,0.,12.0,0.,12.0
1979-03-01 09:45:18.950 ,6,0,0.,12.0,0.,12.0,0.,12.0,0.,12.0
1979-03-01 09:45:30.950 ,5,0,0.,12.0,0.,12.0,0.,12.0,0.,12.0
1979-03-01 09:45:42.950 ,5,0,0.,12.0,0.,12.0,0.,12.0,0.,12.0
1979-03-01 09:45:54.950 ,4,0,0.,12.0,0.,12.0,0.,12.0,0.,12.0
1979-03-01 09:46:06.950 ,4,0,0.,12.0,0.,12.0,0.,12.0,0.,12.0
1979-03-01 09:46:18.950 ,3,0,0.,12.0,0.,12.0,0.,12.0,0.,12.0
1979-03-01 09:46:30.950 ,3,0,0.,12.0,0.,12.0,0.,12.0,0.,12.0
1979-03-01 09:46:42.950 ,2,0,0.,12.0,0.,12.0,0.,12.0,0.,12.0
1979-03-01 09:46:54.950 ,2,0,0.,12.0,0.,12.0,0.,12.0,0.,12.0
1979-03-01 09:47:06.950 ,1,0,0.,12.0,0.,12.0,0.,12.0,0.,12.0
1979-03-01 09:47:18.950 ,1,0,0.,12.0,0.,12.0,0.,12.0,0.,12.0
1979-03-01 09:47:30.950 ,0,0,0.,12.0,0.,12.0,0.,12.0,0.,12.0
1979-03-01 09:47:42.950 ,0,0,0.,12.0,0.,12.0,0.,12.0,0.,12.0
1979-03-01 09:47:54.950 ,0,0,0.,12.0,0.,12.0,0.,12.0,0.,12.0
1979-03-01 09:48:06.950 ,0,0,0.,12.0,0.,12.0,0.,12.0,0.,12.0
1979-03-01 09:48:18.950 ,1,0,0.,12.0,0.,12.0,0.,12.0,0.,12.0
1979-03-01 09:48:30.950 ,1,0,0.,12.0,0.,12.0,0.,12.0,0.,12.0
1979-03-01 09:48:42.950 ,2,0,0.,12.0,0.,12.0,0.,12.0,0.,12.0
1979-03-01 09:48:54.950 ,2,0,0.,12.0,0.,12.0,0.,12.0,0.,12.0
1979-03-01 09:49:06.950 ,3,0,0.,12.0,0.,12.0,0.,12.0,0.,12.0
1979-03-01 09:49:18.950 ,3,0,0.,12.0,0.,12.0,0.,12.0,0.,12.0
1979-03-01 09:49:30.950 ,4,0,0.,12.0,0.,12.0,0.,12.0,0.,12.0
1979-03-01 09:49:42.950 ,4,0,0.,12.0,0.,12.0,0.,12.0,0.,12.0
1979-03-01 09:49:54.950 ,5,0,0.,12.0,0.,12.0,0.,12.0,0.,12.0
1979-03-01 09:50:06.950 ,5,0,0.,12.0,0.,12.0,0.,12.0,0.,12.0
1979-03-01 09:50:18.950 ,6,0,0.,12.0,0.,12.0,0.,12.0,0.,12.0
1979-03-01 09:50:30.950 ,6,0,0.,12.0,0.,12.0,0.,12.0,0.,12.0
1979-03-01 09:50:42.950 ,7,0,0.,12.0,0.,12.0,0.,12.0,0.,12.0
1979-03-01 09:50:54.950 ,7,0,0.,12.0,0.,12.0,0.,12.0,0.,12.0
1979-03-01 09:51:06.950 ,7,0,0.,12.0,0.,12.0,0.,12.0,0.,12.0
1979-03-01 09:51:18.950 ,7,0,0.,12.0,0.,12.0,0.,12.0,0.,12.0
1979-03-01 09:51:30.950 ,6,0,0.,12.0,0.,12.0,0.,12.0,0.,12.0
1979-03-01 09:51:42.950 ,6,0,0.,12.0,0.,12.0,0.,12.0,0.,12.0
1979-03-01 09:51:54.950 ,5,0,0.,12.0,0.,12.0,0.,12.0,0.,12.0
1979-03-01 09:52:06.950 ,5,0,0.,12.0,0.,12.0,0.,12.0,0.,12.0
1979-03-01 09:52:18.950 ,4,0,0.,12.0,0.,12.0,0.,12.0,0.,12.0
1979-03-01 09:52:30.950 ,4,0,0.,12.0,0.,12.0,0.,12.0,0.,12.0
1979-03-01 09:52:42.950 ,3,0,0.,12.0,0.,12.0,0.,12.0,0.,12.0
1979-03-01 09:52:54.950 ,3,0,0.,12.0,0.,12.0,0.,12.0,0.,12.0
1979-03-01 09:53:06.950 ,2,0,0.,12.0,0.,12.0,0.,12.0,0.,12.0
1979-03-01 09:53:18.950 ,2,0,0.,12.0,0.,12.0,0.,12.0,0.,12.0
1979-03-01 09:53:30.950 ,1,0,0.,12.0,0.,12.0,0.,12.0,0.,12.0
1979-03-01 09:53:42.950 ,1,0,0.,12.0,0.,12.0,0.,12.0,0.,12.0
1979-03-01 09:53:54.950 ,0,0,0.,12.0,0.,12.0,0.,12.0,0.,12.0
1979-03-01 09:54:06.950 ,0,0,0.,12.0,0.,12.0,0.,12.0,0.,12.0
1979-03-01 09:54:18.950 ,0,0,0.,12.0,0.,12.0,0.,12.0,0.,12.0
1979-03-01 09:54:30.950 ,0,0,0.,12.0,0.,12.0,0.,12.0,0.,12.0
1979-03-01 09:54:42.950 ,1,0,0.,12.0,0.,12.0,0.,12.0,0.,12.0
1979-03-01 09:54:54.950 ,1,0,0.,12.0,0.,12.0,0.,12.0,0.,12.0
1979-03-01 09:55:06.950 ,2,0,0.,12.0,0.,12.0,0.,12.0,0.,12.0
1979-03-01 09:55:18.950 ,2,0,0.,12.0,0.,12.0,0.,12.0,0.,12.0
1979-03-01 09:55:30.950 ,3,0,0.,12.0,0.,12.0,0.,12.0,0.,12.0
1979-03-01 09:55:42.950 ,3,0,1.,12.0,0.,12.0,0.,12.0,0.,12.0
1979-03-01 09:55:54.950 ,4,0,0.,12.0,0.,12.0,0.,12.0,0.,12.0
1979-03-01 09:56:06.950 ,4,0,0.,12.0,0.,12.0,0.,12.0,0.,12.0
1979-03-01 09:56:18.950 ,5,0,0.,12.0,0.,12.0,0.,12.0,0.,12.0
1979-03-01 09:56:30.950 ,5,0,0.,12.0,0.,12.0,0.,12.0,0.,12.0
1979-03-01 09:56:42.950 ,6,0,0.,12.0,0.,12.0,0.,12.0,0.,12.0
1979-03-01 09:56:54.950 ,6,0,0.,12.0,0.,12.0,0.,12.0,0.,12.0
1979-03-01 09:57:06.950 ,7,0,0.,12.0,0.,12.0,0.,12.0,0.,12.0
1979-03-01 09:57:18.950 ,7,0,0.,12.0,0.,12.0,0.,12.0,0.,12.0
1979-03-01 09:57:30.950 ,7,0,0.,12.0,0.,12.0,0.,12.0,0.,12.0
1979-03-01 09:57:42.950 ,7,0,0.,12.0,0.,12.0,0.,12.0,0.,12.0
1979-03-01 09:57:54.950 ,6,0,0.,12.0,0.,12.0,0.,12.0,0.,12.0
1979-03-01 09:58:06.950 ,6,0,0.,12.0,0.,12.0,0.,12.0,0.,12.0
1979-03-01 09:58:18.950 ,5,0,0.,12.0,0.,12.0,0.,12.0,0.,12.0
1979-03-01 09:58:30.950 ,5,0,0.,12.0,0.,12.0,0.,12.0,0.,12.0
1979-03-01 09:58:42.950 ,4,0,0.,12.0,0.,12.0,0.,12.0,0.,12.0
1979-03-01 09:58:54.950 ,4,0,0.,12.0,0.,12.0,0.,12.0,0.,12.0
1979-03-01 09:59:06.950 ,3,0,0.,12.0,0.,12.0,0.,12.0,0.,12.0
1979-03-01 09:59:18.950 ,3,0,0.,12.0,0.,12.0,0.,12.0,0.,12.0
1979-03-01 09:59:30.950 ,2,0,0.,12.0,0.,12.0,0.,12.0,0.,12.0
1979-03-01 09:59:42.950 ,2,0,0.,12.0,0.,12.0,0.,12.0,0.,12.0
1979-03-01 09:59:54.950 ,1,0,0.,12.0,0.,12.0,0.,12.0,0.,12.0
1979-03-01 10:00:06.950 ,1,0,0.,12.0,0.,12.0,0.,12.0,0.,12.0
1979-03-01 10:00:18.950 ,0,0,0.,12.0,0.,12.0,0.,12.0,0.,12.0
1979-03-01 10:00:30.950 ,0,0,0.,12.0,0.,12.0,0.,12.0,0.,12.0
1979-03-01 10:00:42.950 ,0,0,0.,12.0,0.,12.0,0.,12.0,0.,12.0
1979-03-01 10:00:54.950 ,0,0,0.,12.0,0.,12.0,0.,12.0,0.,12.0
1979-03-01 10:01:06.950 ,1,0,0.,12.0,0.,12.0,0.,12.0,0.,12.0
1979-03-01 10:01:18.950 ,1,0,0.,12.0,0.,12.0,0.,12.0,0.,12.0
1979-03-01 10:01:30.950 ,2,0,0.,12.0,0.,12.0,0.,12.0,0.,12.0
1979-03-01 10:01:42.950 ,2,0,0.,12.0,0.,12.0,0.,12.0,0.,12.0
1979-03-01 10:01:54.950 ,3,0,0.,12.0,0.,12.0,0.,12.0,0.,12.0
1979-03-01 10:02:06.950 ,3,0,0.,12.0,0.,12.0,0.,12.0,0.,12.0
1979-03-01 10:02:18.950 ,4,0,0.,12.0,0.,12.0,0.,12.0,0.,12.0
1979-03-01 10:02:30.950 ,4,0,0.,12.0,0.,12.0,0.,12.0,0.,12.0
1979-03-01 10:02:42.950 ,5,0,0.,12.0,0.,12.0,0.,12.0,0.,12.0
1979-03-01 10:02:54.950 ,5,0,0.,12.0,0.,12.0,0.,12.0,0.,12.0
1979-03-01 10:03:06.950 ,6,0,0.,12.0,0.,12.0,0.,12.0,0.,12.0
1979-03-01 10:03:18.950 ,6,0,0.,12.0,0.,12.0,0.,12.0,0.,12.0
1979-03-01 10:03:30.950 ,7,0,0.,12.0,0.,12.0,0.,12.0,0.,12.0
1979-03-01 10:03:42.950 ,7,0,0.,12.0,0.,12.0,0.,12.0,0.,12.0
1979-03-01 10:03:54.950 ,7,0,0.,12.0,0.,12.0,0.,12.0,0.,12.0
1979-03-01 10:04:06.950 ,7,0,0.,12.0,0.,12.0,0.,12.0,0.,12.0
1979-03-01 10:04:18.950 ,6,0,0.,12.0,0.,12.0,0.,12.0,0.,12.0
1979-03-01 10:04:30.950 ,6,0,0.,12.0,0.,12.0,0.,12.0,0.,12.0
1979-03-01 10:04:42.950 ,5,0,0.,12.0,0.,12.0,0.,12.0,0.,12.0
1979-03-01 10:04:54.950 ,5,0,0.,12.0,0.,12.0,0.,12.0,0.,12.0
1979-03-01 10:05:06.950 ,4,0,0.,12.0,0.,12.0,0.,12.0,0.,12.0
1979-03-01 10:05:18.950 ,4,0,0.,12.0,0.,12.0,0.,12.0,0.,12.0
1979-03-01 10:05:30.950 ,3,0,0.,12.0,0.,12.0,0.,12.0,0.,12.0
1979-03-01 10:05:42.950 ,3,0,0.,12.0,0.,12.0,0.,12.0,0.,12.0
1979-03-01 10:05:54.950 ,2,0,0.,12.0,0.,12.0,0.,12.0,0.,12.0
1979-03-01 10:06:06.950 ,2,0,0.,12.0,0.,12.0,0.,12.0,0.,12.0
1979-03-01 10:06:18.950 ,1,0,0.,12.0,0.,12.0,0.,12.0,0.,12.0
1979-03-01 10:06:30.950 ,1,0,0.,12.0,0.,12.0,0.,12.0,0.,12.0
1979-03-01 10:06:42.950 ,0,0,0.,12.0,0.,12.0,0.,12.0,0.,12.0
1979-03-01 10:06:54.950 ,0,0,0.,12.0,0.,12.0,0.,12.0,0.,12.0
1979-03-01 10:07:06.950 ,0,0,0.,12.0,0.,12.0,0.,12.0,0.,12.0
1979-03-01 10:07:18.950 ,0,0,0.,12.0,0.,12.0,0.,12.0,0.,12.0
1979-03-01 10:07:30.950 ,1,0,0.,12.0,0.,12.0,0.,12.0,0.,12.0
1979-03-01 10:07:42.950 ,1,0,0.,12.0,0.,12.0,0.,12.0,0.,12.0
1979-03-01 10:08:42.950 ,0,0,0.,12.0,0.,12.0,0.,12.0,0.,12.0
1979-03-01 10:08:54.950 ,0,0,0.,12.0,0.,12.0,0.,12.0,0.,12.0
1979-03-01 10:09:06.950 ,5,0,0.,12.0,0.,12.0,0.,12.0,0.,12.0
1979-03-01 10:09:18.950 ,5,0,0.,12.0,0.,12.0,0.,12.0,0.,12.0
1979-03-01 10:09:30.950 ,6,0,0.,12.0,0.,12.0,0.,12.0,0.,12.0
1979-03-01 10:09:42.950 ,6,0,0.,12.0,0.,12.0,0.,12.0,0.,12.0
1979-03-01 10:09:54.950 ,7,0,0.,12.0,0.,12.0,0.,12.0,0.,12.0
1979-03-01 10:10:06.950 ,7,0,0.,12.0,0.,12.0,0.,12.0,0.,12.0
1979-03-01 10:10:18.950 ,7,0,0.,12.0,0.,12.0,0.,12.0,0.,12.0
1979-03-01 10:10:30.950 ,7,0,0.,12.0,0.,12.0,0.,12.0,0.,12.0
1979-03-01 10:10:42.950 ,6,0,0.,12.0,0.,12.0,0.,12.0,0.,12.0
1979-03-01 10:10:54.950 ,6,0,0.,12.0,0.,12.0,0.,12.0,0.,12.0
1979-03-01 10:11:06.950 ,5,0,0.,12.0,0.,12.0,0.,12.0,0.,12.0
1979-03-01 10:11:18.950 ,5,0,0.,12.0,0.,12.0,0.,12.0,0.,12.0
1979-03-01 10:11:30.950 ,4,0,0.,12.0,0.,12.0,0.,12.0,0.,12.0
1979-03-01 10:11:42.950 ,4,0,0.,12.0,0.,12.0,0.,12.0,0.,12.0
1979-03-01 10:11:54.950 ,3,0,0.,12.0,0.,12.0,0.,12.0,0.,12.0
1979-03-01 10:12:06.950 ,3,0,0.,12.0,0.,12.0,0.,12.0,0.,12.0
1979-03-01 10:12:18.950 ,2,0,0.,12.0,0.,12.0,0.,12.0,0.,12.0
1979-03-01 10:12:30.950 ,2,0,0.,12.0,0.,12.0,0.,12.0,0.,12.0
1979-03-01 10:12:42.950 ,1,0,0.,12.0,0.,12.0,0.,12.0,0.,12.0
1979-03-01 10:12:54.950 ,1,0,0.,12.0,0.,12.0,0.,12.0,0.,12.0
1979-03-01 10:13:06.950 ,0,0,0.,12.0,0.,12.0,0.,12.0,0.,12.0
1979-03-01 10:13:18.950 ,0,0,0.,12.0,0.,12.0,0.,12.0,0.,12.0
1979-03-01 10:13:30.950 ,0,0,0.,12.0,0.,12.0,0.,12.0,0.,12.0
1979-03-01 10:13:42.950 ,0,0,0.,12.0,0.,12.0,0.,12.0,0.,12.0
1979-03-01 10:13:54.950 ,1,0,0.,12.0,0.,12.0,0.,12.0,0.,12.0
1979-03-01 10:14:06.950 ,1,0,0.,12.0,0.,12.0,0.,12.0,0.,12.0
1979-03-01 10:14:18.950 ,2,0,0.,12.0,0.,12.0,0.,12.0,0.,12.0
1979-03-01 10:14:30.950 ,2,0,0.,12.0,0.,12.0,0.,12.0,0.,12.0
1979-03-01 10:14:42.950 ,3,0,0.,12.0,0.,12.0,0.,12.0,0.,12.0
1979-03-01 10:14:54.950 ,3,0,0.,12.0,0.,12.0,0.,12.0,0.,12.0
1979-03-01 10:15:06.950 ,4,0,0.,12.0,0.,12.0,0.,12.0,0.,12.0
1979-03-01 10:15:18.950 ,4,0,0.,12.0,0.,12.0,0.,12.0,0.,12.0
1979-03-01 10:15:30.950 ,5,0,0.,12.0,0.,12.0,0.,12.0,0.,12.0
1979-03-01 10:15:42.950 ,5,0,0.,12.0,0.,12.0,0.,12.0,0.,12.0
1979-03-01 10:15:54.950 ,6,0,0.,12.0,0.,12.0,0.,12.0,0.,12.0
1979-03-01 10:16:06.950 ,6,0,1.,12.0,0.,12.0,0.,12.0,0.,12.0
1979-03-01 10:16:18.950 ,7,0,0.,12.0,0.,12.0,0.,12.0,0.,12.0
1979-03-01 10:16:30.950 ,7,0,0.,12.0,0.,12.0,0.,12.0,0.,12.0
1979-03-01 10:16:42.950 ,7,0,0.,12.0,0.,12.0,0.,12.0,0.,12.0
1979-03-01 10:16:54.950 ,7,0,0.,12.0,0.,12.0,0.,12.0,0.,12.0
1979-03-01 10:17:06.950 ,6,0,0.,12.0,0.,12.0,0.,12.0,0.,12.0
1979-03-01 10:17:18.950 ,6,0,0.,12.0,0.,12.0,0.,12.0,0.,12.0
1979-03-01 10:17:30.950 ,5,0,0.,12.0,0.,12.0,0.,12.0,0.,12.0
1979-03-01 10:17:42.950 ,5,0,0.,12.0,0.,12.0,0.,12.0,0.,12.0
1979-03-01 10:17:54.950 ,4,0,0.,12.0,0.,12.0,0.,12.0,0.,12.0
1979-03-01 10:18:06.950 ,4,0,0.,12.0,0.,12.0,0.,12.0,0.,12.0